Home > Weather > Belarus > Barysaw > Past weeks

Flag for Belarus Weather past 2 weeks in Barysaw, Belarus

34 °F

Passing clouds.

Feels Like: 29 °F
Forecast: 32 / 35 °F
Wind: 6 mph from West

Location: Minsk

Current Time: Dec 2, 2015 at 2:55:13 AM

Latest Report: Dec 2, 2015 at 2:00 AM

Visibility: N/A

Pressure: 29.71 "Hg

Humidity: 93%

Dew point: 32 °F

Location of BarysawLocation

Historic Weather in Barysaw — Graph


Barysaw temperature yesterday

Maximum temperature yesterday: 36 °F (at 12:00 AM)
Minimum temperature yesterday: 34 °F (at 5:00 AM)
Average temperature yesterday: 34 °F

Past Weeks' High & Low Weather Summary

High50 °F (Nov 18, 8:00 PM)100% (Nov 17, 1:00 AM)30.18 "Hg (Nov 17, 1:00 AM)
Low14 °F (Nov 27, 3:00 AM)64% (Nov 26, 3:30 AM)29.27 "Hg (Nov 20, 10:00 PM)
Average34 °F92%29.74 "Hg
* Reported Nov 17 1:00 AM — Dec 2 1:30 AM, Barysaw, Weather by CustomWeather, © 2015

Note: Actual official high and low records may vary slightly from our data, if they occured in-between our weather recording intervals... More about our weather records


Barysaw weather history for previous 24 hours

Time TempWeatherWind HumidityBarometerVisibility
1:30 AM
Wed, Dec 2
36 °FPassing clouds.8 mph87%29.71 "HgN/A
1:00 AM36 °FPassing clouds.6 mph87%29.68 "HgN/A
12:30 AM36 °FPassing clouds.10 mph87%29.68 "HgN/A
12:00 AM34 °FPassing clouds.6 mph93%29.68 "HgN/A
11:30 PM
Tue, Dec 1
36 °FPartly cloudy.6 mph93%29.65 "HgN/A
11:00 PM36 °FPartly cloudy.6 mph93%29.65 "HgN/A
10:57 PM34 °FPartly cloudy.6 mph100%29.65 "HgN/A
10:30 PM34 °FPassing clouds.6 mph100%29.65 "HgN/A
10:00 PM34 °FSprinkles. Passing clouds.6 mph100%29.62 "HgN/A
9:57 PM34 °FSprinkles. Passing clouds.6 mph100%29.62 "Hg3 mi
9:30 PM34 °FPartly cloudy.3 mph100%29.62 "HgN/A
9:00 PM34 °FSprinkles. Passing clouds.3 mph100%29.62 "Hg4 mi
8:30 PM34 °FPassing clouds.6 mph100%29.62 "HgN/A
8:00 PM34 °FOvercast.3 mph100%29.59 "HgN/A
7:30 PM34 °FPassing clouds.3 mph100%29.59 "HgN/A
7:00 PM34 °FPartly cloudy.3 mph100%29.59 "Hg5 mi
6:30 PM34 °FSprinkles. Fog.3 mph100%29.56 "Hg3 mi
6:00 PM34 °FPartly cloudy.3 mph100%29.56 "Hg4 mi
5:46 PM34 °FSprinkles. Mostly cloudy.3 mph100%29.56 "Hg4 mi
5:30 PM34 °FFog.3 mph100%29.56 "Hg3 mi
5:00 PM34 °FMore clouds than sun.3 mph100%29.56 "Hg5 mi
4:30 PM34 °FSprinkles. Mostly cloudy.3 mph100%29.53 "Hg4 mi
4:00 PM34 °FPartly sunny.3 mph100%29.53 "Hg6 mi
3:30 PM36 °FPartly sunny.3 mph93%29.53 "Hg5 mi
3:00 PM36 °FOvercast.3 mph93%29.50 "Hg5 mi
2:30 PM34 °FOvercast.3 mph100%29.50 "Hg6 mi
2:04 PM34 °FLight snow. Partly sunny.3 mph100%29.50 "Hg3 mi
1:59 PM34 °FLight snow. Partly sunny.3 mph100%29.50 "Hg2 mi
1:30 PM36 °FLight snow. Partly sunny.3 mph93%29.50 "Hg4 mi
1:00 PM34 °FPartly sunny.6 mph100%29.50 "HgN/A
12:30 PM34 °FPartly sunny.3 mph100%29.47 "HgN/A
12:00 PM34 °FPartly sunny.6 mph100%29.47 "HgN/A
11:30 AM34 °FPartly sunny.6 mph100%29.47 "HgN/A
10:30 AM34 °FPartly sunny.6 mph93%29.47 "HgN/A
10:00 AM34 °FSnow flurries. Mostly cloudy.6 mph93%29.47 "Hg5 mi
9:45 AM34 °FSnow flurries. Mostly cloudy.6 mph93%29.47 "Hg4 mi
9:30 AM34 °FSnow flurries. Mostly cloudy.6 mph93%29.47 "Hg1 mi
9:00 AM34 °FLight rain. Overcast.6 mph93%29.47 "HgN/A
8:30 AM34 °FOvercast.6 mph93%29.47 "HgN/A
7:30 AM34 °FOvercast.6 mph93%29.47 "HgN/A
7:00 AM34 °FOvercast.6 mph93%29.47 "HgN/A
6:30 AM34 °FOvercast.6 mph93%29.47 "HgN/A
6:00 AM34 °FOvercast.6 mph93%29.47 "HgN/A
5:30 AM36 °FOvercast.6 mph87%29.47 "HgN/A
5:00 AM34 °FOvercast.6 mph93%29.47 "HgN/A
4:30 AM36 °FOvercast.6 mph87%29.47 "HgN/A
3:30 AM36 °FOvercast.6 mph87%29.47 "HgN/A
3:00 AM36 °FOvercast.6 mph93%29.47 "HgN/A
2:30 AM36 °FOvercast.6 mph93%29.47 "HgN/A
2:00 AM36 °FOvercast.6 mph93%29.47 "HgN/A
Weather by CustomWeather, © 2015

See weather overviewHow to use our weather pages